カタログに戻る

ARIANE 3 DEB

運用中GTO
NORAD 27026·DEBRIS·🇫🇷 France

打ち上げ Sep 8, 1988 から Guiana Space Centre

Loading…

TLE

経年Source: Space-Track

元期: Sep 14, 2026, 11:37 UTC

1 27026U 88081J   26257.48439378  .00000253  00000-0  23964-2 0  9996
2 27026   7.4286 142.6463 7107499 351.9491 213.9973  2.36527955268511

AllMySatでARIANE 3 DEBをリアルタイム追跡

Download on the App Store